User: anonymous   Login
Location: Ottawa
(45.4170°N, 75.7000°W)
Time: 10:03:55
(UTC-04:00)
Language:

Aureole 3 Rocket - Orbit

View from above orbital plane
View from above orbital plane
View from above satellite
View from above satellite

Ground track
Ground track

The orbit data is extracted from the following two-line orbital elements,

1 12849U 81094B   16176.21704069  .00000261  00000-0  23836-4 0  9991
2 12849  82.4944  81.3961 0903227 297.3783  53.8262 13.49859082693628
Epoch (UTC): 24 June 2016 05:12:32
Eccentricity: 0.0903227
inclination: 82.4944°
perigee height: 400 km
apogee height: 1746 km
right ascension of ascending node: 81.3961°
argument of perigee: 297.3783°
revolutions per day: 13.49859082
mean anomaly at epoch: 53.8262°
orbit number at epoch: 69362

The dashed part of the orbit path shows where the satellite is in the earth's shadow,  

DLR